Weather History for Plant City, FL

Change the Weather History Date:

Tuesday, February 26, 2013

  Actual Average Record
Temperature  
Mean Temperature 70 °F -  
Max Temperature 78 °F 74 °F 89 °F (1944)
Min Temperature 62 °F 49 °F 25 °F (1967)
Cooling Degree Days 5    
Growing Degree Days 20 (Base 50)    
Moisture  
Dew Point 68 °F    
Average Humidity 83    
Maximum Humidity 100    
Minimum Humidity 61    
Precipitation  
Precipitation 0.14 in - - ()
Sea Level Pressure  
Sea Level Pressure 29.83 in    
Wind  
Wind Speed 8 mph (SSW)    
Max Wind Speed 15 mph    
Max Gust Speed 21 mph    
Visibility 9 miles    
Events Rain    
Averages and records for this station are not official NWS values.
T = Trace of Precipitation, MM = Missing Value Source: NWS Daily Summary

Daily Weather History Graph

Daily Weather History Graph

Search for Another Location

Airport:

Trip Planner

Search our weather history database for the weather conditions in past years. The results will help you decide how hot, cold, wet, or windy it might be!

Date:

Astronomy

Feb. 26, 2013 Rise Set
Actual Time 6:56 AM EST 6:27 PM EST
Civil Twilight 6:32 AM EST 6:50 PM EST
Nautical Twilight 6:05 AM EST 7:18 PM EST
Astronomical Twilight 5:37 AM EST 7:45 PM EST
Moon 7:31 PM EST (2/26) 7:06 AM EST (2/26)
Length of Visible Light 12h 18m
Length of Day
11h 31m
Full, 99% of the Moon is Illuminated
Feb 26
Full
Mar 4
Last Quarter
Mar 11
New
Mar 19
First Quarter
Mar 27
Full

Hourly Weather History & Observations

Time (EST) Temp. Dew Point Humidity Pressure Visibility Wind Dir Wind Speed Gust Speed Precip Events Conditions
12:15 AM 73.4 °F 66.2 °F 78% 29.82 in 10.0 mi South 4.6 mph - N/A   Scattered Clouds
12:35 AM 73.4 °F 68.0 °F 83% 29.81 in 10.0 mi South 6.9 mph - N/A   Mostly Cloudy
12:55 AM 73.4 °F 68.0 °F 83% 29.80 in 10.0 mi South 5.8 mph - N/A   Scattered Clouds
1:15 AM 73.4 °F 68.0 °F 83% 29.80 in 10.0 mi South 6.9 mph - N/A   Scattered Clouds
1:35 AM 73.4 °F 68.0 °F 83% 29.80 in 10.0 mi South 6.9 mph - N/A   Scattered Clouds
1:55 AM 73.4 °F 68.0 °F 83% 29.80 in 10.0 mi South 8.1 mph - N/A   Scattered Clouds
2:15 AM 73.4 °F 69.8 °F 88% 29.80 in 10.0 mi South 9.2 mph - N/A   Clear
2:35 AM 73.4 °F 69.8 °F 88% 29.79 in 10.0 mi South 6.9 mph - N/A   Clear
2:55 AM 73.4 °F 69.8 °F 88% 29.78 in 10.0 mi South 8.1 mph - N/A   Scattered Clouds
3:15 AM 73.4 °F 69.8 °F 88% 29.78 in 10.0 mi SSE 8.1 mph - N/A   Scattered Clouds
3:35 AM 73.4 °F 69.8 °F 88% 29.76 in 10.0 mi SSE 8.1 mph - N/A   Mostly Cloudy
3:55 AM 73.4 °F 68.0 °F 83% 29.75 in 10.0 mi SSE 9.2 mph - N/A   Mostly Cloudy
4:15 AM 73.4 °F 68.0 °F 83% 29.75 in 10.0 mi South 10.4 mph - N/A   Overcast
4:35 AM 73.4 °F 68.0 °F 83% 29.76 in 10.0 mi South 9.2 mph - N/A   Overcast
4:55 AM 73.4 °F 68.0 °F 83% 29.78 in 10.0 mi SSE 11.5 mph - N/A   Overcast
5:15 AM 73.4 °F 68.0 °F 83% 29.77 in 10.0 mi SSE 9.2 mph - N/A   Overcast
5:35 AM 73.4 °F 68.0 °F 83% 29.79 in 10.0 mi South 9.2 mph - N/A   Overcast
5:55 AM 73.4 °F 68.0 °F 83% 29.79 in 10.0 mi SSE 6.9 mph - N/A   Overcast
6:15 AM 73.4 °F 69.8 °F 88% 29.80 in 10.0 mi South 8.1 mph - N/A   Overcast
6:35 AM 73.4 °F 71.6 °F 94% 29.79 in 10.0 mi South 10.4 mph 16.1 mph N/A   Overcast
6:55 AM 73.4 °F 73.4 °F 100% 29.79 in 10.0 mi South 9.2 mph - N/A   Overcast
7:15 AM 73.4 °F - N/A% 29.78 in 7.0 mi SSE 9.2 mph - N/A   Overcast
7:35 AM 73.4 °F - N/A% 29.79 in 10.0 mi SSE 8.1 mph - N/A   Overcast
7:55 AM 75.2 °F - N/A% 29.79 in 10.0 mi South 9.2 mph 16.1 mph N/A   Mostly Cloudy
8:15 AM 75.2 °F 71.6 °F 89% 29.80 in 10.0 mi South 11.5 mph 17.3 mph N/A   Mostly Cloudy
8:35 AM 77.0 °F 71.6 °F 83% 29.80 in 10.0 mi South 13.8 mph 17.3 mph N/A   Scattered Clouds
8:55 AM 77.0 °F 69.8 °F 78% 29.79 in 10.0 mi South 12.7 mph 18.4 mph N/A   Scattered Clouds
9:15 AM 77.0 °F 69.8 °F 78% 29.79 in 10.0 mi South 13.8 mph 19.6 mph N/A   Mostly Cloudy
9:35 AM 78.8 °F 69.8 °F 74% 29.83 in 10.0 mi SSW 9.2 mph 20.7 mph N/A Rain Light Rain
9:55 AM 77.0 °F 71.6 °F 83% 29.83 in 10.0 mi SSW 9.2 mph 16.1 mph N/A Rain Light Rain
10:15 AM 77.0 °F 69.8 °F 78% 29.84 in 10.0 mi SSW 10.4 mph 18.4 mph N/A Rain Rain
10:35 AM 77.0 °F 71.6 °F 83% 29.85 in 10.0 mi SSW 9.2 mph 16.1 mph N/A   Overcast
10:55 AM 75.2 °F 71.6 °F 89% 29.84 in 7.0 mi SSW 9.2 mph - N/A Rain Light Rain
11:15 AM 75.2 °F 73.4 °F 94% 29.84 in 7.0 mi SSW 10.4 mph - N/A   Drizzle
11:35 AM 75.2 °F 75.2 °F 100% 29.85 in 7.0 mi SSW 11.5 mph - N/A Rain Light Rain
11:55 AM 75.2 °F 75.2 °F 100% 29.85 in 4.0 mi SW 12.7 mph 19.6 mph 0.02 in Rain Rain
12:15 PM 69.8 °F 69.8 °F 100% 29.86 in 3.0 mi West 9.2 mph - 0.12 in Rain Light Rain
12:35 PM 71.6 °F - N/A% 29.84 in 4.0 mi WNW 9.2 mph - 0.12 in   Light Drizzle
12:55 PM 69.8 °F - N/A% 29.85 in 10.0 mi West 8.1 mph - 0.12 in   Overcast
1:15 PM 69.8 °F - N/A% 29.85 in 7.0 mi WSW 5.8 mph - N/A Rain Light Rain
1:35 PM 69.8 °F - N/A% 29.83 in 7.0 mi SSW 4.6 mph - N/A   Overcast
1:55 PM 71.6 °F - N/A% 29.81 in 10.0 mi South 6.9 mph - N/A   Overcast
2:15 PM 71.6 °F - N/A% 29.80 in 10.0 mi SSW 6.9 mph - N/A   Mostly Cloudy
2:35 PM 73.4 °F - N/A% 29.81 in 10.0 mi SW 9.2 mph - N/A   Mostly Cloudy
2:55 PM 75.2 °F - N/A% 29.82 in 10.0 mi WSW 9.2 mph 16.1 mph N/A   Overcast
3:15 PM 75.2 °F 75.2 °F 100% 29.82 in 10.0 mi WSW 10.4 mph 17.3 mph N/A   Overcast
3:35 PM 75.2 °F 68.0 °F 78% 29.82 in 10.0 mi WSW 15.0 mph 19.6 mph N/A   Overcast
3:55 PM 75.2 °F 68.0 °F 78% 29.81 in 10.0 mi WSW 10.4 mph 17.3 mph N/A   Scattered Clouds
4:15 PM 75.2 °F 68.0 °F 78% 29.82 in 10.0 mi SW 10.4 mph 17.3 mph N/A   Scattered Clouds
4:35 PM 75.2 °F 68.0 °F 78% 29.82 in 10.0 mi WSW 10.4 mph - N/A   Scattered Clouds
4:55 PM 75.2 °F 66.2 °F 73% 29.83 in 10.0 mi West 11.5 mph - N/A   Scattered Clouds
5:15 PM 75.2 °F 60.8 °F 61% 29.83 in 7.0 mi West 10.4 mph - N/A   Scattered Clouds
5:35 PM 73.4 °F 60.8 °F 65% 29.83 in 7.0 mi West 6.9 mph - N/A   Clear
5:55 PM 73.4 °F 60.8 °F 65% 29.83 in 7.0 mi West 8.1 mph - N/A   Clear
6:15 PM 71.6 °F 60.8 °F 69% 29.84 in 7.0 mi West 5.8 mph - N/A   Clear
6:35 PM 69.8 °F 60.8 °F 73% 29.84 in 7.0 mi West 4.6 mph - N/A   Clear
6:55 PM 69.8 °F 60.8 °F 73% 29.85 in 7.0 mi West 4.6 mph - N/A   Clear
7:15 PM 69.8 °F 60.8 °F 73% 29.86 in 7.0 mi SW 3.5 mph - N/A   Clear
7:35 PM 68.0 °F 64.4 °F 88% 29.86 in 7.0 mi SW 3.5 mph - N/A   Clear
7:55 PM 68.0 °F 68.0 °F 100% 29.87 in 7.0 mi SW 3.5 mph - N/A   Clear
8:15 PM 68.0 °F - N/A% 29.87 in 7.0 mi SSW 4.6 mph - N/A   Clear
8:35 PM 68.0 °F - N/A% 29.87 in 7.0 mi SW 4.6 mph - N/A   Clear
8:55 PM 66.2 °F - N/A% 29.88 in 7.0 mi SSW 4.6 mph - N/A   Clear
9:15 PM 66.2 °F - N/A% 29.88 in 7.0 mi SSW 4.6 mph - N/A   Clear
9:35 PM 66.2 °F - N/A% 29.90 in 7.0 mi SW 3.5 mph - N/A   Clear
9:55 PM 66.2 °F - N/A% 29.90 in 7.0 mi SSW 3.5 mph - N/A   Clear
10:15 PM 64.4 °F - N/A% 29.90 in 7.0 mi SSW 3.5 mph - N/A   Clear
10:35 PM 64.4 °F - N/A% 29.91 in 7.0 mi SW 3.5 mph - N/A   Clear
10:55 PM 64.4 °F - N/A% 29.92 in 5.0 mi Calm Calm - N/A   Haze
11:15 PM 64.4 °F - N/A% 29.92 in 5.0 mi Calm Calm - N/A   Haze
11:35 PM 62.6 °F - N/A% 29.92 in 7.0 mi SW 3.5 mph - N/A   Clear
11:55 PM 62.6 °F - N/A% 29.92 in 7.0 mi SW 3.5 mph - N/A   Clear